Back to catalog

CZ-6A DEB

AlivePO
NORAD 61074·DEBRIS·🇨🇳 China

Launched Aug 6, 2024 from Taiyuan Satellite Launch Center

Loading…

Next Passes (next 24 hours)

TLE

FreshSource: Space-Track

Epoch: Sep 14, 2026, 17:15 UTC

1 61074U 24140MQ  26257.71919758  .00001630  00000-0  31694-3 0  9994
2 61074  88.9859 258.3513 0123712 315.6770  43.4585 14.57884715109604

Track CZ-6A DEB in real time with AllMySat

Download on the App Store